Regional Weather Roundup
Issued by NWS Upton, NY

Current Version | Previous Version | Graphics & Text | Print | Product List | Glossary Off
Versions: 1 2 3 4 5 6 7 8 9 10 11 12 13 14 15 16 17 18 19 20 21 22 23 24 25 26 27

000
ASUS41 KOKX 301604
RWROKX

REGIONAL WEATHER ROUNDUP
NATIONAL WEATHER SERVICE NEW YORK NY
1200 PM EDT TUE AUG 30 2016

NOTE: "FAIR" INDICATES FEW OR NO CLOUDS BELOW 12,000 FEET WITH NO
SIGNIFICANT WEATHER AND/OR OBSTRUCTIONS TO VISIBILITY.

NYZ071-072-176-178-NJZ106-104-301700-
NEW YORK CITY METRO AREA

CITY           SKY/WX    TMP DP  RH WIND       PRES   REMARKS
Central Park   CLOUDY    79  61  53 CALM      30.17F
LaGuardia APRT MOSUNNY   79  63  57 NE10      30.14F
Kennedy INTL   CLOUDY    80  64  58 S7        30.16F
Newark/Liberty CLOUDY    81  61  50 SE3       30.14F
Bronx Bot Gard   N/A    N/A N/A N/A NE2       30.16F
Wall St Helipt PTSUNNY   81  64  57 W3        30.15F
Teterboro      MOSUNNY   82  59  45 CALM      30.13F
$$

NYZ177-179-078>081-301700-
LONG ISLAND NEW YORK

CITY           SKY/WX    TMP DP  RH WIND       PRES   REMARKS
Farmingdale    PTSUNNY   80  62  54 S9        30.15F
MacArthur/ISP  PTSUNNY   79  62  55 S6        30.14F
Shirley        PTSUNNY   80  61  52 S9        30.15F
Riverhead      NOT AVBL
Westhampton    CLOUDY    77  61  57 SE8       30.17F
Southampton      N/A     77  63  61 S5        30.12F
Bridgehampton    N/A     79  64  61 S2        30.15F
East Hampton   FAIR      76  61  59 SE9G16    30.15F
Montauk          N/A     74  63  68 VRB3      30.17F
$$

NYZ052-065-067-301700-
HUDSON VALLEY

CITY           SKY/WX    TMP DP  RH WIND       PRES   REMARKS
White Plains   MOSUNNY   78  60  53 S6        30.16F
Newburgh       MOSUNNY   75  61  60 CALM      30.18F
Montgomery     SUNNY     77  60  55 CALM      30.17F
Poughkeepsie   SUNNY     76  56  49 VRB3      30.15F
Albany         PTSUNNY   75  58  55 VRB3      30.16F
$$

NJZ001-105-106-008-010-013-015-019>022-104-301700-
NEW JERSEY

CITY           SKY/WX    TMP DP  RH WIND       PRES   REMARKS
Newark/Liberty CLOUDY    81  61  50 SE3       30.14F
Teterboro      MOSUNNY   82  59  45 CALM      30.13F
Caldwell       SUNNY     81  60  48 CALM      30.15F
Morristown     MOSUNNY   79  63  57 SE5       30.15F
Somerville     PTSUNNY   79  63  57 CALM      30.13F
Linden         FAIR      80  61  53 CALM      30.17S
Sussex         SUNNY     77  64  64 CALM      30.16F
Abdover          N/A     79  63  57 CALM      30.16F
Trenton        MOSUNNY   81  64  56 VRB5      30.13F
Millville      PTSUNNY   84  68  58 CALM      30.11F
Atlantic City  MOSUNNY   82  67  60 E12       30.12F
Wrightstown    MOSUNNY   83  65  53 SE8       30.11F
Toms River     PTSUNNY   81  66  60 SE9       30.14F
Belmar         SUNNY     80  61  52 SE8G17    30.16F
$$

PAZ047>061-062-071-301700-
EASTERN PENNSYLVANIA

CITY           SKY/WX    TMP DP  RH WIND       PRES   REMARKS
Philadelphia   MOSUNNY   85  64  49 E6        30.13F
Allentown      SUNNY     80  61  52 VRB3      30.16F
Scranton       SUNNY     77  60  55 W8        30.18F
$$

CTZ002-004>006-009-010-012-RIZ004-006-007-MAZ004-011-015-301700-
SOUTHERN NEW ENGLAND
 IN CT

CITY           SKY/WX    TMP DP  RH WIND       PRES   REMARKS
Bradley INTL   PTSUNNY   75  55  49 S6        30.16F
Hartford       SUNNY     79  57  46 VRB5      30.15F
Danbury        SUNNY     75  57  53 VRB3      30.17F
Wtrbury/Oxford MOSUNNY   75  54  46 SW3       30.20F
Bridgeport     SUNNY     76  61  59 E7        30.15F
Meriden        SUNNY     79  56  45 CALM      30.15F
New Haven      MOSUNNY   76  59  55 S8        30.16F
Chester        FAIR      77  59  53 VRB6      30.16F
Groton         SUNNY     75  61  61 S7        30.15F
Wilimantic     SUNNY     77  57  50 VRB3      30.16F

 IN RI

CITY           SKY/WX    TMP DP  RH WIND       PRES   REMARKS
Providence     MOSUNNY   77  56  48 VRB6      30.15F
Block Island   PTSUNNY   75  62  64 VRB3      30.16F
Westerly       SUNNY     76  57  51 S8        30.16F
 IN MA

CITY           SKY/WX    TMP DP  RH WIND       PRES   REMARKS
Boston         MOSUNNY   76  55  48 SE9       30.13F
Worcester      MOSUNNY   72  52  49 SW9       30.17F
Westfield      SUNNY     76  55  48 S8        30.15F
Provincetown   SUNNY     73  62  68 N7        30.15F
Nantucket      SUNNY     74  58  57 S10       30.14F
$$

ANZ330-335-338-340-345-350-353-355-301700-
COASTAL MARINE OBSERVATIONS


STATION/POSITION TIME  SKY/WX   TEMP    WIND        PRES    VSBY  WAVE
                                AIR SEA DIR/SP/G                  HT/PER
                 (UTC)          (F)     (DEG/KT/KT) (MB)    (MI)  (FT/S)
NY HARB ENTRANCE 1450            74 77   80/  8/ 10 1021.3          5/13
20S FIRE ISLAND  1450            75 76  120/  8/ 10 1021.1          5/12
GREAT SOUTH BAY  1515            74 79  120/  6/  8   N/A
23 SSW MONTAUK P 1450            73 76   80/  2/  6 1022.1          4/11
15 E BARNEGAT LI 1500               77                N/A           5/13
HUDSON CANYON    1450            77 78              1020.5          5/11
KINGS POINT      1500            73 76              1021.4
EXECUTION ROCKS  1500            72      40/  8/ 12   N/A
CENTRAL LI SOUND 1530            71 75   70/  4/  6   N/A           0
EASTERN LI SOUND 1500            72 71   90/  2/  4   N/A
ROBBINS REEF     1500            75     180/ 12/ 13 1020.7
$$


>>>>>>>>>>>>>>>>>>>>>>>>>>>> KEY <<<<<<<<<<<<<<<<<<<<<<<<<<<
>                                                          <
>     SKY/WX - Sky Condition/Present Weather               <
>     TMP    - Temperature in Fahrenheit                   <
>     DP     - Dew Point in Fahrenheit                     <
>     RH     - Relative Humidity in Percent                <
>     WIND   - Direction (from) and Speed in MPH           <
>     PRES   - Mean Sea Level Pressure (inches of Hg)      <
>     WCI    - Wind Chill Index                            <
>     VSB    - VISIBILITY IN MILES                         <
>     HX     - HEAT INDEX                                  <
>     TC     - TEMPERATURE IN CELSIUS                      <
>     VRB    - VARIABLE WIND DIRECTION                     <
>                                                          <
>>>>>>>>>>>>>>>>>>>>>>>>>>>> KEY <<<<<<<<<<<<<<<<<<<<<<<<<<<




USA.gov is the U.S. government's official web portal to all federal, state and local government web resources and services.